Location: Antioch Baptist Church
(32.6696°N, 85.7327°W)
Time: 21:08:01
(UTC+00:00)

Meteor 1-28 Rocket - Pass Details

Date: 14 July 2020
Orbit: 505 x 522 km, 97.3° (Epoch: 13 August)

Event Time Altitude Azimuth Distance (km) Brightness Sun altitude
Exits shadow 08:51:07 58° 170° (S) 596 3.2 -20.5°
Maximum altitude 08:51:48 89° 252° (WSW) 512 3.0 -20.4°
Drops below altitude 10° 08:55:32 10° 348° (NNW) 1,729 6.3 -19.8°
Sets 08:57:38 0° 349° (N) 2,621 7.2 -19.5°
